Regional Weather Roundup
Issued by NWS

Home | Current Version | Previous Version | Text Only | Print | Product List | Glossary Off
Versions: 1 2 3 4 5 6 7 8 9 10 11 12 13 14 15 16 17 18 19 20 21 22 23 24 25 26 27 28 29 30 31 32 33 34 35 36 37 38 39 40 41 42 43 44 45 46 47 48 49 50

000
ASUS43 KMKX 050721
RWRWI

WISCONSIN REGIONAL WEATHER ROUNDUP
NATIONAL WEATHER SERVICE MILWAUKEE/SULLIVAN WI
200 AM CDT THU MAY 05 2016

NOTE: "FAIR" INDICATES FEW OR NO CLOUDS BELOW 12,000 FEET WITH NO
SIGNIFICANT WEATHER AND/OR OBSTRUCTIONS TO VISIBILITY.

WIZ001-002-006>008-014>016-023>028-050800-
NORTHWEST WISCONSIN

CITY           SKY/WX    TMP DP  RH WIND       PRES   REMARKS
SUPERIOR ARPT  CLEAR     31  31  98 CALM      30.03S
ASHLAND        CLEAR     29  29 100 NW5       30.03R WCI  24
HAYWARD        CLEAR     31  27  85 NE3       30.01R
SIREN          CLEAR     34  29  84 CALM      30.02R
CUMBERLAND     CLEAR     36  30  80 CALM      30.01R
RICE LAKE      CLEAR     37  33  86 CALM      30.02R
CHETEK         CLEAR     35  30  82 CALM      30.01R
LADYSMITH      CLEAR     32  30  90 CALM      30.01S
EAU CLAIRE     CLEAR     37  31  78 W3        29.99S
MENOMONIE      CLEAR     38  28  66 W3        30.01S
NEW RICHMOND   CLEAR     41  28  60 CALM      30.02R
OSCEOLA        CLEAR     39  34  84 CALM      30.04R
$$

WIZ003>005-009-010-017-018-050800-
NORTH CENTRAL WISCONSIN

CITY           SKY/WX    TMP DP  RH WIND       PRES   REMARKS
MANITOWISH WTR   N/A     27  27 100 CALM      29.99S FOG
ARBOR VITAE    CLEAR     32  29  88 CALM      29.99S
WOODRUFF       CLEAR     32  29  88 CALM      29.99S
RHINELANDER    CLEAR     34  30  85 CALM      29.99S
EAGLE RIVER    CLEAR     27  27  99 CALM      29.98S
LAND O LAKES   CLEAR     28  28  99 CALM      30.00R
PHILLIPS       CLEAR     31  30  97 CALM      29.99S
TOMAHAWK       CLEAR     30  28  93 CALM      29.99F
MEDFORD        CLEAR     34  30  86 NE5       29.98S WCI  30
MERRILL        CLEAR     30  30 100 CALM      29.99F
$$

WIZ029-030-035-036-043>047-050800-
CENTRAL WISCONSIN

CITY           SKY/WX    TMP DP  RH WIND       PRES   REMARKS
WAUSAU         CLEAR     41  32  70 CALM      29.97R
MOSINEE        CLEAR     37  32  81 N3        29.99S
MARSHFIELD     CLEAR     42  31  64 N6        29.97S
STEVENS POINT  CLEAR     32  28  86 CALM      29.99R
WAUPACA        CLEAR     41  32  71 N5        29.98S
WAUTOMA        CLEAR     39  32  76 N5        29.98S
WISC RAPIDS    CLEAR     38  30  73 N5        30.00R WCI  34
CAMP DOUGLAS   CLEAR     34  34 100 NW1       29.98S
$$

WIZ011>013-019>022-031-037>040-048>050-050800-
NORTHEAST WISCONSIN

CITY           SKY/WX    TMP DP  RH WIND       PRES   REMARKS
ANTIGO         CLEAR     33  31  92 CALM      29.98S
SHAWANO        CLEAR     39  32  77 N6        29.98S WCI  34
OCONTO         CLEAR     37  32  84 NW3       29.97S
STURGEON BAY   CLEAR     37  30  75 N12       29.98S WCI  30
GREEN BAY      CLEAR     37  31  78 N9        29.97S WCI  30
MANITOWOC      PTCLDY    38  32  79 NW9G17    29.95F WCI  31
APPLETON       PTCLDY    36  30  80 N8        29.95S WCI  29
CLINTONVILLE   CLEAR     37  32  81 N3        29.98S
OSHKOSH        CLEAR     40  31  70 N12       29.96S WCI  33
$$

WIZ032>034-041-042-053>061-050800-
SOUTHWEST WISCONSIN

CITY           SKY/WX    TMP DP  RH WIND       PRES   REMARKS
LA CROSSE      CLEAR     48  31  51 NE3       29.99S
SPARTA         CLEAR     32  29  88 CALM      30.00S
VIROQUA        CLEAR     40  32  71 N3        29.98S
BOSCOBEL       CLEAR     39  33  79 NW3       29.98S
PRAIRIE DU CHI CLEAR     40  32  74 E3        29.98S
PLATTEVILLE    CLEAR     41  34  76 N7        29.96S
$$

WIZ056-057-062-063-064-067-068-050800-
SOUTH CENTRAL WISCONSIN

CITY           SKY/WX    TMP DP  RH WIND       PRES   REMARKS
REEDSBURG      CLEAR     42  32  70 N6        29.97S
BARABOO/DELLS  CLEAR     42  32  68 N5        29.97R
LONE ROCK      CLEAR     45  32  60 NE3       29.98R
MINERAL POINT  CLEAR     43  32  65 N7        29.96R
MADISON        CLEAR     40  32  73 NE9       29.96R WCI  34
MIDDLETON      CLEAR     40  35  82 N6        29.97S
WATERTOWN      CLEAR     38  33  81 N5        29.94S WCI  35
MONROE         CLEAR     39  36  87 N10G17    29.94S WCI  32
JANESVILLE     CLEAR     43  34  70 NE8       29.93S
$$

WIZ051-052-058>065-066-070>072-050800-
SOUTHEAST WISCONSIN

CITY           SKY/WX    TMP DP  RH WIND       PRES   REMARKS
MILWAUKEE      MOCLDY    42  33  70 N15G24    29.92S
WAUKESHA       CLEAR     36  32  87 N7        29.94S WCI  30
MILWAUKEE/TIMM CLOUDY    39  32  75 N12       29.94R WCI  32
RACINE         CLOUDY    42  33  70 N17G30    29.92F
BURLINGTON     PTCLDY    37  32  84 N5        29.92S WCI  33
KENOSHA        CLOUDY    42  33  70 N12G25    29.91S
FOND DU LAC    CLEAR     41  32  70 N14       29.96S
SHEBOYGAN      PTCLDY    39  31  72 N8        29.94F WCI  33
WEST BEND      PTCLDY    37  32  81 N7        29.94S WCI  32
JUNEAU         CLEAR     38  33  81 N10       29.95F WCI  31
$$

LSZ147-162-050800-
LAKE SUPERIOR

STATION/POSITION TIME  TEMP    WIND        PRES    WAVE
                       AIR SEA DIR/SP/G            HT/PER
                 (UTC) (F)     (DEG/KT/KT) (MB)    (FT/S)
W MID LAKE BUOY  0650   36 36  350/  4/  6 1017.4S   1/ 5
DEVILS ISLAND    0700   39      70/  4/  4 1017.6R
PORT WING        0540   35     130/  2/  4 1016.6R
SAXON HARBOR     0600   32     220/  3/  3 1015.9R
$$

LMZ867-665-643>646-050800-
LAKE MICHIGAN

STATION/POSITION TIME  TEMP    WIND        PRES    WAVE
                       AIR SEA DIR/SP/G            HT/PER
                 (UTC) (F)     (DEG/KT/KT) (MB)    (FT/S)
CHAMBERS ISLAND  0600   40     330/ 14/ 17 1014.6S
N MID LAKE BUOY  0650   38 38  340/ 14/ 16 1013.9R   2/ 4
NORTHPORT PIER   0622   40     340/ 14/ 18 1014.6R
ALGOMA LAKESHORE 0600          330/ 10/ 13   N/A
KEWAUNEE LAKESHO 0700   39     350/  8/ 13 1013.5F
SHEBOYGAN LAKESH 0700   41     350/ 18/ 21 1014.3F
PORT WASHINGTON  0640   41     330/  9/ 13 1014.6S
S MID LAKE BUOY  0650   40 40   20/ 23/ 27 1011.1R   9/ 8
KENOSHA   LAKESH 0700   43     360/ 24/ 30 1012.5R
$$

TC  - TEMPERATURE IN CELSIUS
VSB - VISIBILITY IN STATUTE MILES
WCI - WIND CHILL INDEX
HX  - HEAT INDEX





USA.gov is the U.S. government's official web portal to all federal, state and local government web resources and services.